Regional Weather Roundup
Issued by NWS

Home | Current Version | Previous Version | Text Only | Print | Product List | Glossary Off
Versions: 1 2 3 4 5 6 7 8 9 10 11 12 13 14 15 16 17 18 19 20 21 22 23 24 25 26 27 28 29 30 31 32 33 34 35 36 37 38 39 40 41 42 43 44 45 46 47 48 49 50

000
ASUS45 KABQ 030810
RWRNM
NEW MEXICO REGIONAL WEATHER ROUNDUP
NATIONAL WEATHER SERVICE ALBUQUERQUE NM
200 AM MDT FRI JUL 03 2015

NOTE: "FAIR" MEANS FEW OR NO CLOUDS BELOW 12,000 FEET AGL WITH NO
       SIGNIFICANT WEATHER OR OBSTRUCTIONS TO VISION.

      THIS PRODUCT IS RELEASED AS TWO VERSIONS.  ONE VERSION NEAR
      THE TOP OF THE HOUR CONTAINING PRELIMINARY DATA FROM ALBUQUERQUE
      AND OTHER STATIONS.  A FINAL VERSION WITH ADDITIONAL DATA IS
      ISSUED ABOUT 10 MINUTES AFTER THE HOUR.

NMZ501-503-504-510>518-030900-
NORTHWEST PLATEAU/NORTHCENTRAL MOUNTAINS

CITY           SKY/WX    TMP DP  RH WIND       PRES   REMARKS
FARMINGTON     CLEAR     66  56  70 E7        30.17F
LOS ALAMOS     MOCLDY    59  57  94 NE5       30.32F
SANTA FE       MOCLDY    61  57  87 N5        30.24F
TAOS           MOCLDY    54  45  71 SE7       30.32S
ANGEL FIRE     FAIR      48  47  97 CALM      30.43F

$$
NMZ402-403-502-505>509-030900-
WESTCENTRAL MOUNTAINS/SOUTHWEST MOUNTAINS

CITY           SKY/WX    TMP DP  RH WIND       PRES   REMARKS
GALLUP         CLOUDY    65  55  70 NE12      30.21F
GRANTS         CLOUDY    62  61  97 S3        30.25F
SILVER CITY      N/A     70  59  68 SW6       30.20R

$$
NMZ407-409-411-412-030900-
SOUTHERN DESERTS

CITY           SKY/WX    TMP DP  RH WIND       PRES   REMARKS
LORDSBURG      LGT RAIN  68  63  83 S3        30.11R
DEMING         CLOUDY    77  57  50 W5        30.08R
LAS CRUCES     CLOUDY    78  56  45 N3        30.08R
HOLLOMAN AFB   CLOUDY    73  63  71 NW8       30.03S
ALAMOGORDO     MOCLDY    73  59  60 NW8       30.04S
T OR C         RAIN      69  63  81 NW9       30.15R

$$
NMZ519>523-030900-
CENTRAL VALLEYS/CENTRAL HIGHLANDS

CITY           SKY/WX    TMP DP  RH WIND       PRES   REMARKS
ALBUQUERQUE    CLOUDY    69  59  70 N6        30.18F
DOUBLE EAGLE   CLOUDY    65  59  82 NW5       30.21F
MORIARTY ARPT    N/A     60  55  83 CALM      30.25F
CLINES CORNERS MOCLDY    60  52  74 E6        30.27F
BELEN          FAIR      67  61  81 N5        30.16F
SOCORRO        MOCLDY    69  63  81 CALM      30.13R

$$
NMZ524>526-539-540-030900-
SOUTHCENTRAL MOUNTAINS

CITY           SKY/WX    TMP DP  RH WIND       PRES   REMARKS
RUIDOSO        CLOUDY    57  57 100 CALM      30.27F

$$
NMZ527>531-030900-
NORTHEAST HIGHLANDS/NORTHEAST PLAINS

CITY           SKY/WX    TMP DP  RH WIND       PRES   REMARKS
LAS VEGAS      MOCLDY    57  54  89 N8        30.30S
RATON          CLOUDY    62  58  86 NE3       30.26S
CLAYTON        CLOUDY    65  63  93 NW5       30.17F

$$
NMZ532>537-030900-
EASTCENTRAL PLAINS

CITY           SKY/WX    TMP DP  RH WIND       PRES   REMARKS
TUCUMCARI      LGT RAIN  68  64  87 W12       30.09R
CANNON AFB     MOCLDY    71  63  76 CALM      30.09S
CLOVIS AIRPORT MOCLDY    70  61  73 CALM        N/A

$$
NMZ028-029-538-030900-
SOUTHEAST PLAINS

CITY           SKY/WX    TMP DP  RH WIND       PRES   REMARKS
ROSWELL        CLOUDY    73  64  73 NW6       30.04F
ARTESIA        CLOUDY    75  63  64 E6        30.04F
CARLSBAD       CLOUDY    77  62  59 SE12      30.02F
HOBBS          MOCLDY    72  63  73 S7        30.07F


$$


USA.gov is the U.S. government's official web portal to all federal, state and local government web resources and services.